Tracking 19903 objects as of 16-Oct-2019
HD Live streaming from Space Station
objects crossing your sky now

FENGYUN 1C DEB

Track FENGYUN 1C DEB now!
10-day predictions


NORAD ID: 30659
Int'l Code: 1999-025APR
Perigee: 521.3 km
Apogee: 734.4 km
Inclination: 99.1 °
Period: 97.1 minutes
Semi major axis: 6998 km
RCS: 0.009 m2 (small)
Launch date: May 10, 1999
Source: People's Republic of China (PRC)
Launch site: Taiyaun Space Center, China (TSC)

Note: This is SATELLITE DEBRIS
aabbcc
Your satellite tracking list
Your tracking list is empty




NASA's NSSDC Master Catalog

Two Line Element Set (TLE):
1 30659U 99025APR 19289.02559510  .00000802  00000-0  89393-4 0  9990
2 30659  99.0646  96.4355 0152259  13.2364 112.2289 14.82730824680585
Source of the keplerian elements: AFSPC